This is the latest recevied weather packets stored in our database for station/object N0FDH. If no packets are shown the sender has not sent any weather packets the latest 10 day(s).
| Time | Temp. | Humidity | Pressure | Rain* | Wind** | Luminosity | Snow |
|---|---|---|---|---|---|---|---|
| 1777129182 | 10.56° C | 66% | 1017 hPa | 0 mm | - | 158 W/m² | - |
| 1777128878 | 10.56° C | 65% | 1017.1 hPa | 0 mm | - | 129 W/m² | - |
| 1777128575 | 10.56° C | 66% | 1016.9 hPa | 0 mm | - | 129 W/m² | - |
| 1777128272 | 10.56° C | 66% | 1017 hPa | 0 mm | - | 136 W/m² | - |
| 1777127970 | 10.56° C | 65% | 1017.2 hPa | 0 mm | - | 126 W/m² | - |
| 1777127668 | 10° C | 65% | 1016.8 hPa | 0 mm | - | 123 W/m² | - |
| 1777127364 | 10° C | 65% | 1016.7 hPa | 0 mm | - | 124 W/m² | - |
| 1777127061 | 10° C | 65% | 1016.7 hPa | 0 mm | - | 156 W/m² | - |
| 1777126756 | 10° C | 65% | 1016.6 hPa | 0 mm | - | 166 W/m² | - |
| 1777126453 | 10° C | 64% | 1016.6 hPa | 0 mm | - | 163 W/m² | - |
| 1777126148 | 10° C | 64% | 1016.5 hPa | 0 mm | - | 156 W/m² | - |
| 1777125844 | 9.44° C | 64% | 1016.4 hPa | 0 mm | - | 146 W/m² | - |
| 1777125540 | 8.89° C | 64% | 1016.5 hPa | 0 mm | - | 141 W/m² | - |
| 1777125236 | 8.89° C | 63% | 1016.4 hPa | 0 mm | - | 131 W/m² | - |
| 1777124931 | 8.89° C | 63% | 1016.6 hPa | 0 mm | - | 104 W/m² | - |
| 1777124629 | 8.33° C | 63% | 1016.4 hPa | 0 mm | - | 115 W/m² | - |
| 1777124324 | 8.33° C | 63% | 1016.5 hPa | 0 mm | - | 109 W/m² | - |
| 1777124021 | 8.33° C | 64% | 1016.2 hPa | 0 mm | - | 74 W/m² | - |
| 1777123717 | 7.78° C | 68% | 1016.2 hPa | 0 mm | - | 90 W/m² | - |
| 1777123413 | 7.78° C | 67% | 1016.3 hPa | 0 mm | - | 80 W/m² | - |
| 1777123109 | 7.22° C | 67% | 1016.3 hPa | 0 mm | - | 71 W/m² | - |
| 1777122806 | 6.67° C | 66% | 1016.2 hPa | 0 mm | - | 63 W/m² | - |
| 1777122502 | 6.67° C | 69% | 1016.2 hPa | 0 mm | - | 68 W/m² | - |
| 1777122199 | 6.11° C | 68% | 1015.9 hPa | 0 mm | - | 95 W/m² | - |
| 1777121894 | 5.56° C | 75% | 1016 hPa | 0 mm | - | 84 W/m² | - |
* Rain latest hour (hover to see other rain measurements)
** Current wind speed in m/s (hover to see current wind gust speed)